Vorticity
nan nan nan nan nan nan nan nan nan nan nan nan nan nan nan nan nan nan nan nan nan nan nan nan nan nan nan nan nan nan nan nan nan nan nan nan nan nan nan nan nan nan nan
nan 9 9 8 9 8 9 10 8 7 7 8 10 12 14 10 10 9 12 13 12 14 12 10 12 11 9 10 14 14 11 12 11 11 11 11 11 9 12 9 7 9 nan
nan 8 8 8 8 9 9 8 8 7 6 12 16 10 9 10 8 8 10 10 12 12 14 17 14 9 11 13 11 10 10 11 10 9 9 9 9 8 7 8 10 8 nan
nan 7 8 9 9 9 9 8 9 8 9 13 10 9 9 9 8 9 10 10 11 10 10 14 14 12 14 11 10 10 10 9 9 9 8 9 11 7 8 7 7 9 nan
nan 9 8 9 10 10 10 10 10 11 11 10 9 8 8 8 8 13 12 10 9 9 10 12 15 17 13 14 13 11 8 9 9 7 6 10 11 11 7 6 10 9 nan
nan 9 9 10 10 9 10 11 12 12 10 8 10 9 8 5 8 12 12 10 9 8 11 15 13 7 10 11 14 19 18 12 6 7 12 11 9 8 9 11 8 6 nan
nan 9 10 10 10 9 10 10 10 8 8 10 10 9 8 6 7 7 15 15 9 9 11 12 11 8 8 6 8 10 9 12 16 14 11 9 10 8 8 9 6 6 nan
nan 9 10 9 9 9 10 8 7 11 11 10 9 9 7 6 6 11 17 13 9 10 12 13 11 11 8 9 7 6 8 9 11 15 13 12 12 10 10 9 5 8 nan
nan 9 10 9 9 9 10 9 7 8 9 11 11 9 8 5 6 14 16 11 11 10 12 14 13 11 11 9 7 6 6 5 10 12 14 15 11 10 9 7 11 10 nan
nan 11 11 9 8 9 10 8 9 11 11 9 11 10 9 5 5 11 15 12 9 9 10 12 13 14 11 9 8 6 7 9 7 3 6 9 7 9 9 7 11 8 nan
nan 12 10 9 12 10 8 9 11 11 12 12 11 10 9 7 6 12 16 13 10 10 10 9 12 14 8 8 9 11 10 7 7 7 6 7 9 9 7 10 11 9 nan
nan 12 12 10 8 10 9 10 10 10 10 11 8 9 9 9 8 10 13 14 12 11 9 9 15 13 10 9 11 14 10 7 6 7 9 9 9 9 11 13 12 11 nan
nan 13 8 8 9 9 9 9 9 10 9 9 8 9 9 8 8 9 12 12 10 10 14 15 14 10 3 9 16 8 2 4 8 8 9 9 10 11 10 10 12 11 nan
nan 8 7 9 8 8 9 9 9 8 10 10 9 9 10 10 9 8 10 10 8 10 13 10 10 6 8 11 9 6 5 8 10 7 7 9 9 10 10 9 9 8 nan
nan 8 8 11 8 6 8 12 13 14 11 9 11 11 9 10 13 11 11 11 10 10 5 8 10 9 12 11 9 8 8 9 8 9 9 9 10 9 9 9 10 10 nan
nan 8 9 10 9 9 7 3 7 18 26 18 9 8 10 17 14 9 10 12 12 5 3 10 10 12 12 10 10 8 7 10 10 9 10 10 11 9 9 9 9 12 nan
nan 9 9 9 10 9 9 9 3 4 16 22 19 10 13 14 11 8 11 15 4 -1 7 10 11 11 10 10 10 11 9 8 12 12 11 10 11 10 9 9 8 8 nan
nan 10 6 9 10 8 11 10 10 11 5 4 12 24 21 14 10 7 5 4 4 7 12 11 10 11 11 10 9 10 10 11 13 15 13 12 11 9 8 11 10 8 nan
nan 8 10 10 11 11 8 10 11 9 10 8 4 7 11 15 17 18 6 2 10 7 7 9 11 10 11 11 11 10 11 11 10 11 14 12 10 9 9 11 12 11 nan
nan 10 5 9 10 10 11 10 10 12 9 9 9 7 6 8 10 9 8 11 11 10 9 8 9 10 12 11 11 10 9 11 9 8 12 11 10 10 11 12 11 9 nan
nan 12 9 5 10 12 10 11 12 12 10 9 10 13 12 6 8 9 9 8 10 10 10 10 9 9 11 12 12 12 11 10 11 9 8 10 12 10 11 12 12 11 nan
nan 11 10 9 6 8 13 11 10 13 13 9 10 15 11 6 10 10 9 9 8 8 11 12 10 9 9 11 12 13 11 9 11 13 12 10 9 11 11 11 11 12 nan
nan 21 12 9 12 8 6 14 11 9 13 14 12 12 10 9 9 10 10 10 11 9 7 8 10 11 10 10 10 12 12 12 12 12 12 12 11 10 8 10 10 11 nan
nan 17 20 16 9 11 8 8 14 12 9 10 13 15 13 10 10 10 9 10 11 11 10 9 9 8 6 8 10 10 10 12 13 15 11 8 10 12 10 8 12 14 nan
nan 12 15 20 19 12 11 9 10 12 11 9 10 13 15 12 11 11 10 11 11 12 11 10 11 12 9 5 6 9 12 11 10 10 12 13 14 11 9 7 8 13 nan
nan nan nan nan nan nan nan nan nan nan nan nan nan nan nan nan nan nan nan nan nan nan nan nan nan nan nan nan nan nan nan nan nan nan nan nan nan nan nan nan nan nan nan
CAPE
373 185 136 262 146 16 5 0 0 0 0 0 0 24 20 39 33 50 50 157 143 240 209 155 216 122 149 194 127 69 6 0 0 2 0 2 1 3 5 5 9 27 0
403 258 208 79 90 7 0 5 0 0 0 0 4 22 141 175 11 5 64 55 177 120 121 223 182 176 188 122 23 1 2 0 0 2 3 3 1 12 23 27 33 9 5
233 298 384 149 137 52 1 9 0 0 0 8 29 169 187 68 39 25 89 112 111 35 108 112 133 140 193 20 1 3 1 1 1 3 7 10 13 9 6 17 9 6 7
439 291 248 243 142 33 4 12 0 0 0 29 32 223 117 153 115 47 207 51 58 53 62 84 124 122 51 7 1 1 1 1 2 3 6 10 6 13 20 12 15 11 15
312 332 200 260 226 56 55 17 11 0 14 34 45 92 0 0 2 49 32 28 9 13 4 1 45 17 2 0 1 5 5 6 4 5 19 17 12 7 4 8 2 23 21
357 219 263 126 411 84 58 31 31 26 34 19 44 0 0 0 1 0 42 50 28 17 28 1 0 0 0 0 0 5 1 0 4 4 8 15 9 4 8 3 4 9 14
292 248 267 250 5 7 41 31 24 29 61 57 21 0 0 0 2 0 0 71 15 9 0 11 2 0 0 0 0 0 0 1 0 1 3 2 1 1 0 0 0 0 0
104 124 136 150 50 41 25 12 40 70 27 28 9 0 0 0 2 0 0 88 66 24 3 0 1 1 0 0 0 0 0 3 0 0 0 0 0 0 0 0 0 0 0
29 63 96 76 62 181 140 20 38 37 62 12 0 0 0 0 1 0 111 41 22 15 7 5 2 0 0 0 0 1 0 0 0 0 0 0 0 0 0 0 0 0 0
27 45 203 116 150 97 15 19 50 34 39 43 7 0 0 0 1 2 0 5 0 0 0 0 0 0 0 0 0 0 1 0 0 0 0 0 0 0 0 0 0 0 0
18 38 180 91 133 187 124 167 119 108 89 58 0 0 0 0 0 2 0 0 0 0 0 0 0 0 0 0 0 1 0 0 0 0 0 0 0 0 0 0 0 0 0
13 160 411 269 470 309 241 186 64 3 0 0 0 0 0 0 0 1 0 0 0 0 0 0 0 0 0 0 0 0 0 0 0 0 0 0 0 0 0 8 5 0 0
1 230 155 115 217 207 175 73 73 37 6 0 0 0 0 0 0 1 0 0 0 0 0 0 0 0 0 0 0 0 0 0 0 0 0 0 0 0 0 2 0 0 0
173 109 113 359 315 291 122 123 36 40 39 47 6 0 0 0 0 0 0 0 0 0 0 0 0 0 0 0 0 0 0 0 0 0 0 0 0 0 0 0 0 0 0
247 140 104 318 382 197 0 0 0 50 203 77 2 0 0 0 0 0 0 0 0 0 0 0 0 0 0 0 0 0 0 0 0 0 0 0 0 0 0 0 0 0 0
235 251 165 161 345 166 0 0 0 0 0 268 70 10 0 0 0 4 0 0 0 0 0 0 0 0 0 0 0 0 0 0 0 0 0 0 0 0 0 0 0 0 0
47 47 7 21 151 49 0 0 0 0 0 0 68 64 0 0 0 0 0 0 0 0 0 0 0 0 0 0 0 0 0 0 0 0 0 0 0 0 0 0 0 0 0
0 1 0 0 0 22 6 0 0 0 0 0 0 0 0 0 0 0 0 0 0 0 0 0 0 0 0 0 0 0 0 0 0 0 0 0 0 6 0 0 0 0 0
0 0 0 0 0 0 1 13 0 0 0 0 0 0 0 0 0 0 0 0 0 0 0 0 0 0 0 0 0 0 0 0 0 0 0 0 0 0 0 0 0 0 0
0 0 0 0 0 0 0 2 0 0 0 0 0 0 0 0 0 0 0 0 0 0 0 0 0 0 0 0 0 0 0 0 0 0 0 0 0 0 0 0 0 0 0
0 0 0 0 0 0 0 0 0 0 0 0 0 0 0 0 0 0 0 0 0 0 0 0 0 0 0 0 0 0 0 0 0 0 0 0 0 0 0 0 0 0 0
0 0 0 0 0 0 0 0 0 0 0 0 0 0 0 0 0 0 0 0 0 0 0 0 0 0 0 0 0 0 0 0 0 0 0 0 0 0 0 0 0 0 0
49 0 0 0 0 0 0 0 0 0 0 0 0 0 0 0 0 0 0 0 0 0 0 0 0 0 0 0 0 0 0 0 0 0 0 0 0 0 0 0 0 0 0
0 191 8 0 0 0 0 0 0 0 0 0 0 0 0 0 0 0 0 0 0 0 0 0 0 0 0 0 0 0 0 0 0 0 0 0 0 0 0 0 0 0 0
0 4 219 187 0 0 0 0 0 0 0 0 0 0 0 0 0 0 0 0 0 0 0 0 0 0 0 0 0 0 0 0 0 0 0 0 0 0 0 0 0 0 0
0 0 8 192 227 0 0 0 0 0 0 0 0 0 0 0 0 0 0 0 0 0 0 0 0 0 0 0 0 0 0 0 0 0 0 0 0 0 0 0 0 0 0